• In Russia
  • List of Countries
  • For 7 days
  • Water Temperature
  • Weather Map
  • Weather Widgets
  • user-avatar
    Login

    Hourly Weather Canberra

    Today, 23 September, Monday

    Time Temperature Precipitation Wind Pressure Humidity
    00:00 +5°C° 0 mm 1 mps 713 mmHg 83%
    01:00 +5°C° 0 mm 1 mps 713 mmHg 84%
    02:00 +5°C° 0 mm 1 mps 713 mmHg 85%
    03:00 +4°C° 0 mm 1 mps 712 mmHg 87%
    04:00 +3°C° 0 mm 0 mps 712 mmHg 86%
    05:00 +5°C° 0 mm 1 mps 712 mmHg 84%
    06:00 +5°C° 0 mm 1 mps 713 mmHg 81%
    07:00 +5°C° 0 mm 2 mps 713 mmHg 78%
    08:00 +7°C° 0.1 mm 3 mps 713 mmHg 75%
    09:00 +7°C° 0.1 mm 5 mps 713 mmHg 71%
    10:00 +9°C° 0 mm 5 mps 713 mmHg 67%
    11:00 +9°C° 0.4 mm 5 mps 713 mmHg 66%
    12:00 +9°C° 0.4 mm 5 mps 713 mmHg 64%
    13:00 +10°C° 0.4 mm 6 mps 712 mmHg 62%
    14:00 +10°C° 0 mm 5 mps 713 mmHg 58%
    15:00 +10°C° 0 mm 5 mps 713 mmHg 54%
    16:00 +10°C° 0 mm 5 mps 713 mmHg 50%
    17:00 +8°C° 0 mm 4 mps 713 mmHg 60%
    18:00 +7°C° 0 mm 3 mps 714 mmHg 70%
    19:00 +5°C° 0 mm 2 mps 714 mmHg 79%
    20:00 +4°C° 0 mm 2 mps 714 mmHg 83%
    21:00 +4°C° 0 mm 1 mps 715 mmHg 87%
    22:00 +4°C° 0 mm 1 mps 715 mmHg 91%
    23:00 +3°C° 0 mm 1 mps 715 mmHg 91%

    Tomorrow, 24 September, Tuesday

    Time Temperature Precipitation Wind Pressure Humidity
    00:00 +3°C° 0 mm 1 mps 715 mmHg 91%
    01:00 +2°C° 0 mm 0 mps 715 mmHg 92%
    02:00 +1°C° 0 mm 0 mps 715 mmHg 92%
    03:00 +1°C° 0 mm 0 mps 714 mmHg 92%
    04:00 +1°C° 0 mm 0 mps 714 mmHg 93%
    05:00 +2°C° 0 mm 0 mps 715 mmHg 91%
    06:00 +3°C° 0 mm 1 mps 715 mmHg 89%
    07:00 +4°C° 0 mm 1 mps 716 mmHg 87%
    08:00 +7°C° 0 mm 1 mps 716 mmHg 77%
    09:00 +9°C° 0 mm 2 mps 716 mmHg 66%
    10:00 +12°C° 0 mm 3 mps 716 mmHg 56%
    11:00 +13°C° 0 mm 3 mps 715 mmHg 53%
    12:00 +14°C° 0 mm 4 mps 715 mmHg 49%
    13:00 +15°C° 0 mm 4 mps 715 mmHg 46%
    14:00 +14°C° 0 mm 5 mps 714 mmHg 49%
    15:00 +14°C° 0 mm 5 mps 714 mmHg 52%
    16:00 +13°C° 0 mm 5 mps 714 mmHg 56%
    17:00 +11°C° 0 mm 4 mps 714 mmHg 65%
    18:00 +9°C° 0 mm 3 mps 715 mmHg 75%
    19:00 +6°C° 0 mm 2 mps 715 mmHg 85%
    20:00 +5°C° 0 mm 2 mps 716 mmHg 88%
    21:00 +5°C° 0 mm 1 mps 716 mmHg 91%
    22:00 +3°C° 0 mm 0 mps 716 mmHg 94%
    23:00 +3°C° 0 mm 0 mps 716 mmHg 94%

    Day after tomorrow, 25 September, Wednesday

    Time Temperature Precipitation Wind Pressure Humidity
    00:00 +4°C° 0 mm 1 mps 716 mmHg 94%
    01:00 +4°C° 0 mm 1 mps 716 mmHg 94%
    02:00 +5°C° 0 mm 1 mps 716 mmHg 93%
    03:00 +5°C° 0 mm 1 mps 716 mmHg 91%
    04:00 +6°C° 0 mm 1 mps 716 mmHg 90%
    05:00 +5°C° 0 mm 0 mps 716 mmHg 88%
    06:00 +6°C° 0 mm 0 mps 717 mmHg 86%
    07:00 +6°C° 0 mm 0 mps 717 mmHg 84%
    08:00 +8°C° 0 mm 0 mps 717 mmHg 76%
    09:00 +10°C° 0 mm 0 mps 717 mmHg 69%
    10:00 +13°C° 0 mm 1 mps 717 mmHg 62%
    11:00 +13°C° 0 mm 1 mps 716 mmHg 59%
    12:00 +14°C° 0 mm 1 mps 716 mmHg 57%
    13:00 +15°C° 0 mm 2 mps 715 mmHg 54%
    14:00 +15°C° 0 mm 2 mps 715 mmHg 57%
    15:00 +14°C° 0 mm 3 mps 715 mmHg 60%
    16:00 +13°C° 0 mm 3 mps 714 mmHg 63%
    17:00 +12°C° 0 mm 2 mps 715 mmHg 72%
    18:00 +9°C° 0 mm 2 mps 715 mmHg 82%
    19:00 +8°C° 0 mm 1 mps 715 mmHg 92%
    20:00 +7°C° 0 mm 1 mps 716 mmHg 93%
    21:00 +6°C° 0 mm 1 mps 716 mmHg 94%
    22:00 +5°C° 0 mm 0 mps 716 mmHg 95%
    23:00 +4°C° 0 mm 0 mps 716 mmHg 95%

    26 September, Thursday

    Time Temperature Precipitation Wind Pressure Humidity
    00:00 +4°C° 0 mm 0 mps 715 mmHg 96%
    01:00 +4°C° 0 mm 0 mps 715 mmHg 96%
    02:00 +3°C° 0 mm 0 mps 715 mmHg 96%
    03:00 +3°C° 0 mm 0 mps 715 mmHg 96%
    04:00 +3°C° 0 mm 0 mps 714 mmHg 96%
    05:00 +4°C° 0 mm 0 mps 715 mmHg 94%
    06:00 +5°C° 0 mm 0 mps 715 mmHg 93%
    07:00 +5°C° 0 mm 0 mps 715 mmHg 91%
    08:00 +9°C° 0 mm 1 mps 715 mmHg 82%
    09:00 +11°C° 0 mm 1 mps 715 mmHg 72%
    10:00 +13°C° 0 mm 2 mps 715 mmHg 62%
    11:00 +14°C° 0 mm 2 mps 714 mmHg 59%
    12:00 +14°C° 0 mm 3 mps 714 mmHg 55%
    13:00 +16°C° 0 mm 3 mps 714 mmHg 52%
    14:00 +15°C° 0 mm 4 mps 713 mmHg 55%
    15:00 +15°C° 0 mm 4 mps 713 mmHg 59%
    16:00 +14°C° 0 mm 4 mps 712 mmHg 62%
    17:00 +12°C° 0 mm 3 mps 712 mmHg 72%
    18:00 +10°C° 0 mm 3 mps 712 mmHg 82%
    19:00 +8°C° 0 mm 2 mps 713 mmHg 92%
    20:00 +8°C° 0 mm 1 mps 713 mmHg 93%
    21:00 +7°C° 0 mm 1 mps 712 mmHg 94%
    22:00 +6°C° 0 mm 1 mps 712 mmHg 95%
    23:00 +6°C° 0 mm 1 mps 712 mmHg 96%

    27 September, Friday

    Time Temperature Precipitation Wind Pressure Humidity
    00:00 +5°C° 0 mm 1 mps 712 mmHg 96%
    01:00 +5°C° 0 mm 1 mps 712 mmHg 96%
    02:00 +5°C° 0 mm 1 mps 711 mmHg 96%
    03:00 +4°C° 0 mm 1 mps 711 mmHg 96%
    04:00 +4°C° 0 mm 1 mps 710 mmHg 96%
    05:00 +5°C° 0 mm 1 mps 711 mmHg 94%
    06:00 +6°C° 0 mm 1 mps 711 mmHg 92%
    07:00 +5°C° 0 mm 2 mps 711 mmHg 89%
    08:00 +8°C° 0 mm 3 mps 711 mmHg 78%
    09:00 +11°C° 0 mm 4 mps 711 mmHg 66%
    10:00 +14°C° 0 mm 6 mps 711 mmHg 55%
    11:00 +15°C° 0 mm 6 mps 711 mmHg 52%
    12:00 +16°C° 0 mm 6 mps 710 mmHg 49%
    13:00 +17°C° 0 mm 6 mps 710 mmHg 46%
    14:00 +17°C° 0 mm 6 mps 710 mmHg 48%
    15:00 +17°C° 0 mm 5 mps 710 mmHg 50%
    16:00 +17°C° 0 mm 5 mps 709 mmHg 53%
    17:00 +15°C° 0 mm 4 mps 710 mmHg 59%
    18:00 +13°C° 0 mm 3 mps 710 mmHg 66%
    19:00 +12°C° 0 mm 2 mps 711 mmHg 72%
    20:00 +11°C° 0 mm 1 mps 711 mmHg 77%
    21:00 +9°C° 0 mm 1 mps 712 mmHg 81%
    22:00 +7°C° 0 mm 0 mps 712 mmHg 86%
    23:00 +7°C° 0 mm 0 mps 712 mmHg 88%

    28 September, Saturday

    Time Temperature Precipitation Wind Pressure Humidity
    00:00 +8°C° 0 mm 1 mps 712 mmHg 91%
    01:00 +7°C° 0 mm 1 mps 712 mmHg 93%
    02:00 +7°C° 0 mm 1 mps 712 mmHg 94%
    03:00 +7°C° 0 mm 1 mps 712 mmHg 95%
    04:00 +7°C° 0 mm 1 mps 712 mmHg 96%
    05:00 +8°C° 0 mm 1 mps 712 mmHg 94%
    06:00 +8°C° 0 mm 1 mps 712 mmHg 93%
    07:00 +9°C° 0 mm 1 mps 713 mmHg 92%
    08:00 +11°C° 0 mm 1 mps 713 mmHg 81%
    09:00 +13°C° 0 mm 2 mps 712 mmHg 71%
    10:00 +14°C° 0 mm 3 mps 712 mmHg 60%
    11:00 +17°C° 0 mm 4 mps 712 mmHg 54%
    12:00 +18°C° 0 mm 4 mps 712 mmHg 48%
    13:00 +19°C° 0 mm 5 mps 712 mmHg 42%
    14:00 +19°C° 0 mm 5 mps 711 mmHg 44%
    15:00 +17°C° 0 mm 5 mps 711 mmHg 46%
    16:00 +17°C° 0 mm 5 mps 711 mmHg 48%
    17:00 +15°C° 0 mm 4 mps 711 mmHg 55%
    18:00 +13°C° 0 mm 4 mps 711 mmHg 63%
    19:00 +10°C° 0 mm 3 mps 712 mmHg 71%
    20:00 +9°C° 0 mm 2 mps 712 mmHg 72%
    21:00 +8°C° 0 mm 2 mps 712 mmHg 72%
    22:00 +9°C° 0 mm 1 mps 712 mmHg 73%
    23:00 +8°C° 0 mm 1 mps 712 mmHg 75%
    Show more